Flag for U.S.A. Weather past 2 weeks in Livonia, Michigan, U.S.A.

Now
58 °F

Fog.


Feels Like: 58 °F
Forecast: 58 / 75 °F
Wind: 5 mph from West

Location: Detroit Metropolitan Wayne County Airport

Current Time: Jul 30, 2014 at 7:22:52 AM

Latest Report: Jul 30, 2014 at 6:53 AM


Visibility: 6 mi

Pressure: 29.99 "Hg

Humidity: 90%

Dew point: 55 °F

Location of LivoniaLocation

Historic Weather in Livonia — Graph

°F

Livonia temperature yesterday

Maximum temperature yesterday: 73 °F (at 3:53 PM)
Minimum temperature yesterday: 51 °F (at 3:53 AM)
Average temperature yesterday: 63 °F

Past Weeks' High & Low Weather Summary

 TemperatureHumidityPressure
High86 °F (Jul 22, 12:53 PM)100% (Jul 20, 7:53 AM)30.24 "Hg (Jul 20, 7:53 AM)
Low51 °F (Jul 29, 3:53 AM)33% (Jul 17, 5:53 PM)29.58 "Hg (Jul 27, 4:53 PM)
Average68 °F68%29.99 "Hg
* Reported Jul 15 5:53 AM — Jul 30 5:53 AM, Livonia, Weather by CustomWeather, © 2014

Note: Actual official high and low records may vary slightly from our data, if they occured in-between our weather recording intervals... More about our weather records

Advertising

Livonia weather history for previous 24 hours

 ConditionsComfort  
Time TempWeatherWind HumidityBarometerVisibility
5:53 AM
Jul 30
58 °FMostly cloudy.No wind90%29.97 "Hg9 mi
4:53 AM58 °FMostly cloudy.7 mph90%29.96 "Hg9 mi
3:53 AM59 °FOvercast.9 mph90%29.96 "Hg8 mi
2:53 AM58 °FOvercast.5 mph93%29.96 "Hg7 mi
1:53 AM58 °FOvercast.5 mph93%29.96 "Hg7 mi
12:53 AM60 °FOvercast.3 mph86%29.96 "Hg8 mi
11:53 PM
Jul 29
61 °FMostly cloudy.3 mph87%29.98 "Hg10 mi
10:53 PM62 °FLight rain. Mostly cloudy.6 mph83%29.98 "Hg7 mi
9:53 PM64 °FPartly sunny.8 mph75%29.97 "Hg10 mi
8:53 PM65 °FBroken clouds.8 mph78%29.96 "Hg10 mi
7:53 PM67 °FPartly sunny.7 mph76%29.96 "Hg9 mi
6:53 PM69 °FLight rain. Mostly cloudy.14 mph63%29.97 "Hg9 mi
5:53 PM72 °FCloudy.12 mph55%29.96 "Hg10 mi
4:53 PM72 °FMostly cloudy.14 mph55%29.96 "Hg10 mi
3:53 PM73 °FMore clouds than sun.15 mph51%29.97 "Hg10 mi
2:53 PM70 °FCloudy.12 mph55%29.98 "Hg10 mi
1:53 PM70 °FMore clouds than sun.3 mph53%29.99 "Hg10 mi
12:53 PM70 °FMore clouds than sun.9 mph53%30.01 "Hg10 mi
11:53 AM70 °FBroken clouds.10 mph51%30.01 "Hg10 mi
10:53 AM67 °FScattered clouds.8 mph55%30.01 "Hg10 mi
9:53 AM63 °FPassing clouds.8 mph65%30.01 "Hg10 mi
8:53 AM59 °FSunny.3 mph72%30.01 "Hg10 mi
7:53 AM55 °FScattered clouds.5 mph80%30.01 "Hg10 mi
Weather by CustomWeather, © 2014

See weather overviewHow to use our weather pages